TimeGMT,TemperatureF,Dew PointF,Humidity,Sea Level PressureIn,VisibilityMPH,Wind Direction,Wind SpeedMPH,Gust SpeedMPH,PrecipitationIn,Events,Conditions,WindDirDegrees,DateUTC
12:50 AM,39.2,35.6,87,30.09,-9999.0,NNW,11.5,-,N/A,,Clear,330,2012-10-27 23:50:00
1:50 AM,39.2,35.6,87,30.09,-9999.0,NW,10.4,-,N/A,,Clear,320,2012-10-28 00:50:00
1:50 AM,37.4,33.8,87,30.09,-9999.0,NW,6.9,-,N/A,,Clear,310,2012-10-28 01:50:00
2:50 AM,35.6,32.0,87,30.09,-9999.0,NW,8.1,-,N/A,,Clear,310,2012-10-28 02:50:00
3:50 AM,35.6,32.0,87,30.09,-9999.0,WNW,8.1,-,N/A,,Clear,300,2012-10-28 03:50:00
4:50 AM,35.6,32.0,87,30.06,-9999.0,West,5.8,-,N/A,,Clear,270,2012-10-28 04:50:00
5:50 AM,35.6,32.0,87,30.04,-9999.0,WSW,6.9,-,N/A,,Clear,240,2012-10-28 05:50:00
6:20 AM,35.6,32.0,87,30.04,-9999.0,WSW,9.2,-,N/A,,Clear,240,2012-10-28 06:20:00
6:50 AM,35.6,32.0,87,30.04,-9999.0,SW,10.4,-,N/A,,Clear,230,2012-10-28 06:50:00
7:20 AM,35.6,33.8,93,30.04,-9999.0,WSW,8.1,-,N/A,,Clear,240,2012-10-28 07:20:00
7:50 AM,39.2,33.8,81,30.04,-9999.0,WSW,6.9,-,N/A,,Clear,240,2012-10-28 07:50:00
8:20 AM,39.2,33.8,81,30.01,-9999.0,WSW,10.4,-,N/A,,Clear,240,2012-10-28 08:20:00
8:50 AM,41.0,33.8,76,30.01,-9999.0,SW,11.5,-,N/A,,Clear,230,2012-10-28 08:50:00
9:20 AM,42.8,35.6,76,30.01,6.2,SW,11.5,-,N/A,,Mostly Cloudy,230,2012-10-28 09:20:00
9:50 AM,44.6,35.6,71,29.98,6.2,SW,10.4,-,N/A,,Mostly Cloudy,230,2012-10-28 09:50:00
10:20 AM,44.6,37.4,76,29.98,6.2,SW,12.7,-,N/A,,Mostly Cloudy,220,2012-10-28 10:20:00
10:50 AM,44.6,39.2,81,29.98,6.2,SW,11.5,-,N/A,,Light Drizzle,220,2012-10-28 10:50:00
11:20 AM,44.6,39.2,81,29.95,6.2,SW,15.0,-,N/A,,Light Drizzle,220,2012-10-28 11:20:00
11:50 AM,44.6,39.2,81,29.95,6.2,SW,15.0,-,N/A,,Light Drizzle,220,2012-10-28 11:50:00
12:20 PM,44.6,41.0,87,29.95,6.2,SW,10.4,-,N/A,,Mostly Cloudy,230,2012-10-28 12:20:00
12:50 PM,46.4,41.0,81,29.92,6.2,WSW,15.0,-,N/A,,Scattered Clouds,240,2012-10-28 12:50:00
1:20 PM,46.4,41.0,81,29.92,6.2,WSW,15.0,-,N/A,,Partly Cloudy,240,2012-10-28 13:20:00
1:50 PM,46.4,41.0,81,29.92,6.2,SW,13.8,-,N/A,,Mostly Cloudy,230,2012-10-28 13:50:00
2:20 PM,48.2,42.8,82,29.89,6.2,SW,12.7,-,N/A,,Partly Cloudy,220,2012-10-28 14:20:00
2:50 PM,46.4,42.8,87,29.89,6.2,SW,13.8,-,N/A,,Partly Cloudy,230,2012-10-28 14:50:00
3:20 PM,48.2,42.8,82,29.89,6.2,SW,13.8,-,N/A,,Scattered Clouds,230,2012-10-28 15:20:00
3:50 PM,48.2,42.8,82,29.89,6.2,SW,11.5,-,N/A,,Scattered Clouds,220,2012-10-28 15:50:00
4:20 PM,48.2,42.8,82,29.89,6.2,SW,12.7,-,N/A,,Scattered Clouds,220,2012-10-28 16:20:00
4:50 PM,48.2,42.8,82,29.89,6.2,SSW,11.5,-,N/A,,Mostly Cloudy,210,2012-10-28 16:50:00
5:20 PM,48.2,42.8,82,29.89,6.2,SSW,10.4,-,N/A,,Scattered Clouds,210,2012-10-28 17:20:00
5:50 PM,46.4,42.8,87,29.89,6.2,SW,8.1,-,N/A,,Partly Cloudy,220,2012-10-28 17:50:00
6:20 PM,48.2,42.8,82,29.89,6.2,SSW,9.2,-,N/A,,Partly Cloudy,210,2012-10-28 18:20:00
6:50 PM,48.2,42.8,82,29.89,6.2,SSW,9.2,-,N/A,,Partly Cloudy,210,2012-10-28 18:50:00
7:20 PM,46.4,42.8,87,29.89,6.2,SSW,9.2,-,N/A,Rain,Light Rain,210,2012-10-28 19:20:00
7:50 PM,46.4,42.8,87,29.89,6.2,SW,10.4,-,N/A,Rain,Light Rain,220,2012-10-28 19:50:00
8:20 PM,48.2,44.6,87,29.86,6.2,SW,10.4,-,N/A,Rain,Light Rain,220,2012-10-28 20:20:00
8:50 PM,46.4,44.6,93,29.86,6.2,SSW,10.4,-,N/A,Rain,Light Rain,210,2012-10-28 20:50:00
9:20 PM,46.4,44.6,93,29.86,6.2,SW,11.5,-,N/A,Rain,Light Rain,220,2012-10-28 21:20:00
9:50 PM,46.4,42.8,87,29.86,6.2,SW,12.7,-,N/A,Rain,Light Rain,220,2012-10-28 21:50:00
10:20 PM,46.4,42.8,87,29.86,6.2,SW,11.5,-,N/A,Rain,Light Rain,220,2012-10-28 22:20:00
10:50 PM,46.4,44.6,93,29.86,6.2,SW,11.5,-,N/A,Rain,Light Rain,230,2012-10-28 22:50:00